�N����,����,�~����,�C��,���x,�C��,����,���ϕ���,�ő�u�ԕ���,�ő厞����,���˗�,�I�_���x,�n�����x,�ő啗���N��,DTYPE
"21/07/05","00:10",0.0,26.1,86.8,1006.2,358.5,0.7,1.7,357.4,0.00,23.8,25.4,"00:00:08",1
"21/07/05","00:20",0.0,26.0,87.4,1006.0,61.5,0.2,1.1,55.2,0.00,23.8,25.7,"00:10:48",1
"21/07/05","00:30",0.0,25.9,87.8,1006.0,317.1,0.1,0.6,250.8,0.00,23.8,25.7,"00:23:52",1
"21/07/05","00:40",0.0,25.8,88.1,1006.0,192.6,0.3,0.8,307.0,0.00,23.7,25.6,"00:30:48",1
"21/07/05","00:50",0.0,25.9,88.6,1005.7,328.9,0.8,1.4,339.2,0.00,23.9,25.7,"00:46:16",1
"21/07/05","01:00",0.0,25.8,88.9,1005.7,341.0,0.7,1.2,340.2,0.00,23.9,25.6,"00:50:16",1
"21/07/05","01:10",0.0,25.8,89.3,1006.0,330.9,0.6,1.1,294.2,0.00,23.9,25.6,"01:02:24",1
"21/07/05","01:20",0.0,25.8,89.7,1005.7,345.5,1.1,2.0,346.9,0.00,24.0,25.5,"01:18:08",1
"21/07/05","01:30",0.0,25.9,89.9,1006.0,350.2,0.8,1.6,352.3,0.00,24.2,25.4,"01:26:00",1
"21/07/05","01:40",0.0,25.9,90.0,1005.7,300.7,1.0,2.4,320.3,0.00,24.2,25.7,"01:39:36",1
"21/07/05","01:50",0.0,26.2,89.9,1006.0,206.1,0.7,3.9,346.1,0.00,24.4,25.5,"01:40:32",1
"21/07/05","02:00",0.0,26.4,89.8,1005.2,277.5,1.1,2.9,207.5,0.00,24.6,25.3,"01:54:40",1
"21/07/05","02:10",0.0,26.3,89.5,1005.5,337.5,1.2,2.2,308.7,0.00,24.5,25.4,"02:05:52",1
"21/07/05","02:20",0.0,26.3,89.5,1005.5,317.4,0.6,1.4,10.7,0.00,24.5,25.5,"02:15:44",1
"21/07/05","02:30",0.0,26.3,89.5,1005.2,0.5,0.5,1.0,32.8,0.00,24.5,25.4,"02:27:36",1
"21/07/05","02:40",0.0,26.5,89.5,1005.5,218.1,0.8,1.7,240.5,0.00,24.7,25.7,"02:36:48",1
"21/07/05","02:50",0.0,26.5,89.3,1006.0,287.6,0.2,0.6,291.0,0.00,24.6,25.3,"02:41:12",1
"21/07/05","03:00",0.0,26.5,89.1,1005.2,310.8,0.6,1.0,321.5,0.00,24.6,25.6,"02:59:36",1
"21/07/05","03:10",0.0,26.4,89.1,1005.7,335.0,0.6,1.2,341.3,0.00,24.5,25.5,"03:02:24",1
"21/07/05","03:20",0.0,26.4,89.0,1005.5,333.6,0.8,2.0,353.4,0.00,24.5,25.3,"03:19:36",1
"21/07/05","03:30",0.0,26.7,88.6,1005.5,267.1,1.3,2.9,245.1,0.00,24.7,25.4,"03:26:16",1
"21/07/05","03:40",0.0,26.9,88.2,1005.5,264.2,0.5,1.1,299.6,0.00,24.8,25.3,"03:32:48",1
"21/07/05","03:50",0.0,26.8,87.8,1005.7,308.7,0.8,1.8,264.3,0.00,24.6,25.5,"03:48:16",1
"21/07/05","04:00",0.0,26.8,87.4,1005.7,300.1,0.5,1.3,342.5,0.00,24.6,25.4,"03:56:48",1
"21/07/05","04:10",0.0,26.7,87.2,1005.5,317.9,0.2,0.9,36.7,0.00,24.4,25.2,"04:05:44",1
"21/07/05","04:20",0.0,26.8,87.0,1005.2,309.9,0.5,1.1,346.5,0.00,24.5,25.2,"04:15:36",1
"21/07/05","04:30",0.0,26.7,86.8,1005.2,294.4,0.6,1.1,283.4,0.00,24.4,25.4,"04:24:08",1
"21/07/05","04:40",0.0,26.7,86.6,1005.5,8.7,0.3,1.1,262.8,0.00,24.3,25.3,"04:37:28",1
"21/07/05","04:50",0.0,26.5,86.8,1005.5,321.9,0.3,1.0,326.6,0.00,24.2,25.3,"04:44:08",1
"21/07/05","05:00",0.0,26.5,86.9,1005.5,324.6,0.5,1.2,311.9,0.00,24.2,25.2,"04:56:40",1
"21/07/05","05:10",0.0,26.5,87.0,1005.7,277.9,0.8,2.0,241.6,0.00,24.2,25.3,"05:04:48",1
"21/07/05","05:20",0.0,26.6,86.8,1005.7,274.5,0.8,2.1,344.0,0.00,24.3,25.4,"05:11:36",1
"21/07/05","05:30",0.0,26.6,86.7,1005.5,286.9,0.7,1.6,250.2,0.00,24.2,25.3,"05:24:40",1
"21/07/05","05:40",0.0,26.6,86.5,1005.7,320.1,0.6,1.6,284.6,0.00,24.2,25.3,"05:34:24",1
"21/07/05","05:50",0.0,26.6,86.4,1006.0,317.2,0.3,1.3,236.9,0.00,24.2,25.4,"05:42:16",1
"21/07/05","06:00",0.0,26.5,86.5,1006.0,278.6,0.7,1.3,256.7,0.00,24.1,25.2,"05:55:52",1
"21/07/05","06:10",0.0,26.7,86.3,1006.0,310.9,1.2,3.4,344.0,0.00,24.3,25.3,"06:03:52",1
"21/07/05","06:20",0.0,26.7,86.2,1006.0,339.2,1.0,1.8,326.6,0.00,24.2,25.1,"06:13:12",1
"21/07/05","06:30",0.0,26.7,86.3,1006.0,329.2,0.7,1.4,343.1,0.00,24.3,25.2,"06:20:24",1
"21/07/05","06:40",0.0,26.5,86.6,1006.2,313.1,0.5,1.2,339.6,0.00,24.1,25.0,"06:39:04",1
"21/07/05","06:50",0.0,26.5,86.8,1006.2,300.2,0.5,1.3,340.9,0.00,24.2,25.2,"06:48:16",1
"21/07/05","07:00",0.0,26.4,87.2,1006.2,275.5,0.8,2.9,239.7,0.00,24.1,25.1,"06:56:48",1
"21/07/05","07:10",0.0,26.8,86.8,1006.2,261.1,1.3,2.6,245.4,0.01,24.5,25.2,"07:01:52",1
"21/07/05","07:20",0.0,27.0,86.4,1006.2,300.6,1.1,2.2,322.9,0.03,24.6,25.0,"07:17:12",1
"21/07/05","07:30",0.0,27.3,86.1,1006.2,312.2,0.6,1.1,0.1,0.04,24.8,25.2,"07:20:16",1
"21/07/05","07:40",0.0,27.3,85.8,1006.2,301.0,0.3,1.2,329.7,0.02,24.8,25.1,"07:37:44",1
"21/07/05","07:50",0.0,27.4,85.7,1006.2,328.1,0.6,1.2,333.0,0.03,24.8,25.0,"07:40:32",1
"21/07/05","08:00",0.0,27.6,85.7,1006.0,341.6,0.7,1.6,334.4,0.06,25.0,25.1,"07:58:32",1
"21/07/05","08:10",0.0,27.7,85.4,1005.7,349.6,0.5,1.2,348.3,0.06,25.1,25.2,"08:01:52",1
"21/07/05","08:20",0.0,27.7,84.9,1005.7,356.1,0.5,1.4,271.7,0.07,25.0,25.0,"08:10:40",1
"21/07/05","08:30",0.0,27.8,83.7,1006.0,315.3,0.7,2.1,345.8,0.07,24.8,25.2,"08:29:20",1
"21/07/05","08:40",0.0,28.2,82.8,1005.5,283.4,0.6,1.8,246.3,0.14,25.0,25.1,"08:35:20",1
"21/07/05","08:50",0.0,29.7,81.5,1005.2,307.1,0.2,1.0,281.2,0.31,26.2,25.2,"08:41:36",1
"21/07/05","09:00",0.0,29.9,76.4,1006.0,300.2,1.0,2.8,354.1,0.33,25.3,25.2,"08:58:56",1
"21/07/05","09:10",0.0,30.4,74.7,1006.2,296.5,1.1,2.2,230.7,0.39,25.4,25.1,"09:07:12",1
"21/07/05","09:20",0.0,30.7,73.6,1006.7,221.3,1.7,4.8,243.0,0.47,25.5,25.1,"09:12:16",1
"21/07/05","09:30",0.0,30.0,71.7,1006.9,226.7,2.5,5.9,187.4,0.30,24.4,25.2,"09:24:24",1
"21/07/05","09:40",0.0,30.0,72.4,1006.4,260.2,1.8,5.9,231.0,0.33,24.5,25.4,"09:33:44",1
"21/07/05","09:50",0.0,30.4,70.7,1006.4,228.4,2.6,5.7,237.2,0.41,24.5,25.5,"09:49:04",1
"21/07/05","10:00",0.0,30.0,70.3,1006.4,258.0,2.1,5.4,353.0,0.23,24.0,25.6,"09:53:44",1
"21/07/05","10:10",0.0,30.3,71.5,1006.0,261.7,2.0,3.9,249.1,0.33,24.6,25.6,"10:01:12",1
"21/07/05","10:20",0.0,30.7,70.2,1006.7,258.3,2.0,3.9,234.3,0.47,24.7,25.7,"10:10:56",1
"21/07/05","10:30",0.0,30.3,69.6,1006.7,227.0,2.6,6.8,224.5,0.29,24.2,25.4,"10:26:56",1
"21/07/05","10:40",0.0,29.8,70.9,1006.2,238.4,2.5,5.7,233.1,0.16,24.0,25.7,"10:31:28",1
"21/07/05","10:50",0.0,29.8,70.7,1006.2,251.6,1.6,4.3,225.9,0.19,23.9,25.7,"10:49:44",1
"21/07/05","11:00",0.0,30.0,71.7,1006.0,280.1,1.7,4.2,342.9,0.22,24.4,25.8,"10:51:36",1
"21/07/05","11:10",0.0,30.2,70.9,1006.4,302.5,1.3,2.7,342.1,0.24,24.4,25.8,"11:00:16",1
"21/07/05","11:20",0.0,29.7,71.4,1005.7,271.5,1.8,3.6,224.0,0.14,24.0,25.9,"11:11:36",1
"21/07/05","11:30",0.0,29.7,72.3,1005.7,285.8,1.5,4.2,245.8,0.14,24.2,25.9,"11:22:16",1
"21/07/05","11:40",0.0,30.2,72.1,1006.0,288.7,1.1,4.3,342.9,0.23,24.7,25.8,"11:37:20",1
"21/07/05","11:50",0.0,30.5,71.3,1006.0,279.0,0.8,2.8,245.4,0.22,24.8,26.1,"11:40:24",1
"21/07/05","12:00",0.0,30.3,69.7,1006.0,261.4,1.2,2.7,202.2,0.18,24.2,25.9,"11:50:56",1
"21/07/05","12:10",0.0,30.1,70.8,1005.7,288.3,1.0,1.8,223.8,0.13,24.3,26.3,"12:00:56",1
"21/07/05","12:20",0.0,30.6,71.0,1006.2,291.1,0.5,1.6,349.9,0.19,24.8,26.1,"12:14:56",1
"21/07/05","12:30",0.0,30.3,69.8,1006.2,257.0,1.2,3.7,229.7,0.15,24.2,26.0,"12:23:44",1
"21/07/05","12:40",0.0,30.1,71.1,1005.7,252.0,1.2,4.0,224.0,0.12,24.3,25.8,"12:31:12",1
"21/07/05","12:50",0.0,29.8,71.0,1005.7,237.6,2.0,4.2,219.8,0.14,24.0,25.9,"12:43:28",1
"21/07/05","13:00",0.0,29.5,71.7,1005.5,244.1,1.6,4.5,222.7,0.05,23.9,26.1,"12:53:44",1
"21/07/05","13:10",1.4,28.3,76.3,1004.5,279.4,1.3,4.8,240.5,0.07,23.8,26.0,"13:02:40",1
"21/07/05","13:20",2.4,27.1,80.8,1004.8,326.0,1.5,3.4,348.4,0.02,23.6,26.2,"13:15:04",1
"21/07/05","13:30",0.2,27.0,84.0,1004.5,326.7,1.1,2.2,350.7,0.13,24.1,26.2,"13:28:56",1
"21/07/05","13:40",0.0,27.1,85.5,1004.8,328.9,1.2,2.8,346.5,0.23,24.5,26.3,"13:36:08",1
"21/07/05","13:50",0.0,27.8,86.1,1004.8,329.8,1.0,2.0,343.6,0.28,25.3,26.1,"13:40:08",1
"21/07/05","14:00",0.0,28.2,85.6,1004.5,13.3,1.0,2.1,329.6,0.25,25.6,26.1,"13:51:20",1
"21/07/05","14:10",0.0,28.5,84.8,1004.3,88.4,0.8,2.1,130.8,0.21,25.7,26.2,"14:02:32",1
"21/07/05","14:20",0.0,28.7,84.0,1005.0,262.0,0.7,1.7,235.3,0.19,25.8,26.2,"14:19:04",1
"21/07/05","14:30",0.0,28.9,83.7,1004.5,129.7,0.7,1.7,128.7,0.16,25.9,26.2,"14:22:08",1
"21/07/05","14:40",0.0,29.2,82.5,1005.0,222.3,0.6,2.0,246.3,0.20,26.0,26.2,"14:37:12",1
"21/07/05","14:50",0.0,29.7,81.1,1005.0,289.1,0.5,1.4,342.1,0.21,26.1,26.2,"14:40:08",1
"21/07/05","15:00",0.0,29.6,79.0,1005.2,312.2,0.7,1.8,341.4,0.15,25.6,26.4,"14:57:52",1
"21/07/05","15:10",0.0,29.9,78.4,1005.0,277.6,0.8,3.2,338.5,0.17,25.8,26.2,"15:04:00",1
"21/07/05","15:20",0.0,29.6,77.4,1005.0,231.2,1.2,2.5,209.5,0.13,25.3,26.6,"15:17:36",1
"21/07/05","15:30",0.0,29.5,77.2,1005.0,250.0,0.8,1.7,224.4,0.09,25.1,26.4,"15:28:00",1
"21/07/05","15:40",0.0,29.5,77.6,1004.8,278.1,0.6,1.4,235.0,0.08,25.2,26.2,"15:34:32",1
"21/07/05","15:50",0.0,29.2,77.7,1004.3,294.8,1.0,3.7,347.8,0.09,24.9,26.2,"15:49:44",1
"21/07/05","16:00",0.0,28.8,78.6,1004.1,330.7,1.5,3.1,343.5,0.07,24.7,26.3,"15:56:00",1
"21/07/05","16:10",0.2,28.3,79.6,1003.8,333.9,1.5,3.2,344.2,0.05,24.5,26.3,"16:05:04",1
"21/07/05","16:20",0.0,28.1,80.8,1004.3,320.3,1.1,2.0,346.6,0.05,24.5,26.4,"16:16:00",1
"21/07/05","16:30",0.0,28.2,81.7,1004.1,305.9,1.0,1.9,314.8,0.08,24.8,26.3,"16:20:24",1
"21/07/05","16:40",0.0,28.1,82.5,1004.5,332.2,1.1,1.8,346.7,0.07,24.9,26.5,"16:37:20",1
"21/07/05","16:50",0.0,28.0,83.1,1004.3,342.0,1.0,2.0,342.1,0.05,24.9,26.4,"16:41:04",1
"21/07/05","17:00",0.0,28.0,83.5,1004.3,340.4,0.6,1.9,333.9,0.04,25.0,26.5,"16:53:28",1
"21/07/05","17:10",0.0,27.8,83.7,1004.5,34.4,0.3,1.0,76.7,0.04,24.8,26.2,"17:03:12",1
"21/07/05","17:20",0.0,27.9,83.9,1004.8,332.3,0.6,1.2,3.5,0.03,25.0,26.5,"17:18:08",1
"21/07/05","17:30",0.0,27.9,84.3,1004.1,325.4,0.5,1.2,346.5,0.03,25.0,26.4,"17:22:24",1
"21/07/05","17:40",0.0,28.1,84.7,1004.8,335.8,0.6,1.7,341.9,0.04,25.3,26.4,"17:38:00",1
"21/07/05","17:50",0.0,27.8,85.2,1004.5,345.3,1.1,1.8,347.4,0.00,25.1,26.3,"17:42:16",1
"21/07/05","18:00",0.0,27.5,85.9,1004.8,338.3,0.8,1.7,346.6,0.00,25.0,26.4,"17:50:16",1
"21/07/05","18:10",0.0,27.2,86.4,1004.8,306.8,0.7,1.3,330.8,0.01,24.8,26.4,"18:01:04",1
"21/07/05","18:20",0.0,27.2,86.8,1004.8,312.3,0.7,1.2,322.3,0.00,24.8,26.3,"18:18:40",1
"21/07/05","18:30",0.0,27.1,87.1,1005.0,326.5,1.1,1.7,344.1,0.00,24.8,26.4,"18:28:32",1
"21/07/05","18:40",0.0,27.0,87.6,1005.2,332.0,1.1,2.0,343.5,0.00,24.8,26.3,"18:39:28",1
"21/07/05","18:50",0.0,26.8,88.0,1005.5,327.0,1.2,1.7,338.1,0.00,24.7,26.4,"18:49:36",1
"21/07/05","19:00",0.0,26.6,88.3,1005.0,325.7,1.0,1.8,329.9,0.00,24.5,26.3,"18:50:56",1
"21/07/05","19:10",0.0,26.5,88.5,1005.2,336.6,1.1,2.0,316.7,0.00,24.5,26.4,"19:00:08",1
"21/07/05","19:20",0.0,26.4,88.6,1005.2,318.0,0.5,1.1,51.2,0.00,24.4,26.3,"19:13:52",1
"21/07/05","19:30",0.0,26.2,88.9,1005.5,296.9,0.7,1.1,312.1,0.00,24.3,26.2,"19:21:44",1
"21/07/05","19:40",0.0,26.0,89.1,1005.7,304.2,0.8,1.3,340.0,0.00,24.1,26.3,"19:38:56",1
"21/07/05","19:50",0.0,26.0,89.4,1006.0,347.4,0.8,2.1,344.9,0.00,24.2,26.2,"19:46:40",1
"21/07/05","20:00",0.0,25.9,89.8,1006.2,339.3,0.8,1.7,347.3,0.00,24.1,26.2,"19:59:28",1
"21/07/05","20:10",0.0,25.6,90.1,1006.0,306.4,0.7,1.6,326.0,0.00,23.9,26.4,"20:00:02",1
"21/07/05","20:20",0.0,25.4,90.3,1006.2,330.9,1.0,2.0,345.0,0.00,23.7,26.2,"20:10:16",1
"21/07/05","20:30",0.0,25.3,90.6,1006.0,310.1,0.7,1.7,337.2,0.00,23.7,26.1,"20:22:56",1
"21/07/05","20:40",0.0,25.2,90.9,1006.4,338.7,1.0,1.8,342.7,0.00,23.6,26.1,"20:32:32",1
"21/07/05","20:50",0.0,25.1,91.1,1006.4,311.0,0.8,1.4,306.5,0.00,23.6,26.0,"20:40:24",1
"21/07/05","21:00",0.0,25.1,91.3,1006.7,314.9,0.5,1.0,253.2,0.00,23.6,26.0,"20:54:00",1
"21/07/05","21:10",0.0,24.9,91.5,1006.7,336.7,0.6,1.1,330.5,0.00,23.5,26.0,"21:03:04",1
"21/07/05","21:20",0.0,24.9,91.7,1006.7,303.7,0.5,1.2,337.0,0.00,23.5,26.0,"21:10:32",1
"21/07/05","21:30",0.0,24.9,91.8,1006.7,331.3,0.6,1.0,329.3,0.00,23.5,26.0,"21:23:04",1
"21/07/05","21:40",0.0,24.9,91.9,1006.4,314.2,0.8,1.2,325.8,0.00,23.5,26.2,"21:31:44",1
"21/07/05","21:50",0.0,24.9,92.1,1006.7,332.2,1.0,1.6,342.8,0.00,23.6,26.0,"21:41:20",1
"21/07/05","22:00",0.0,25.0,92.2,1006.4,329.8,1.0,1.4,343.6,0.00,23.7,26.2,"21:51:52",1
"21/07/05","22:10",0.0,24.9,92.3,1006.2,309.0,0.5,1.0,305.4,0.00,23.6,25.8,"22:00:24",1
"21/07/05","22:20",0.0,24.9,92.4,1006.4,325.8,0.7,1.2,359.0,0.00,23.6,26.1,"22:14:32",1
"21/07/05","22:30",0.0,24.9,92.5,1006.7,337.4,1.0,1.7,355.9,0.00,23.6,26.0,"22:27:52",1
"21/07/05","22:40",0.0,24.8,92.6,1006.4,328.4,0.8,1.3,341.4,0.00,23.6,25.9,"22:31:12",1
"21/07/05","22:50",0.0,24.7,92.8,1006.4,302.3,0.7,1.1,303.8,0.00,23.5,25.8,"22:40:02",1
"21/07/05","23:00",0.0,24.7,92.8,1006.4,304.4,0.8,1.3,321.1,0.00,23.5,26.0,"22:54:24",1
"21/07/05","23:10",0.0,24.8,92.9,1006.4,311.1,0.6,0.9,296.9,0.00,23.6,25.8,"23:05:36",1
"21/07/05","23:20",0.0,24.8,93.0,1006.4,323.6,0.7,1.3,328.4,0.00,23.6,25.8,"23:15:44",1
"21/07/05","23:30",0.0,24.8,93.0,1006.4,311.4,0.6,0.9,334.7,0.00,23.6,25.7,"23:24:56",1
"21/07/05","23:40",0.0,24.8,93.1,1006.2,337.3,0.5,1.1,325.8,0.00,23.6,25.8,"23:39:12",1
"21/07/05","23:50",0.0,24.8,93.1,1006.7,314.4,0.6,1.1,310.3,0.00,23.6,25.8,"23:43:20",1
"21/07/05","24:00",0.0,24.8,93.2,1006.4,330.8,0.8,1.3,341.2,0.00,23.7,25.7,"23:50:48",1
